Location: Armidale
(30.5016°S, 151.6662°E)
Time: 07:01:28
(UTC+10:00)

Envisat - Visible Passes

Search period start: 22 August 2019 00:00
Search period end: 01 September 2019 00:00
Orbit: 764 x 766 km, 98.1° (Epoch: 21 August)

Date Brightness Start Highest point End Pass type
(mag) Time Alt. Az. Time Alt. Az. Time Alt. Az.
22 Aug 3.0 18:39:11 10° SSE 18:44:16 62° E 18:49:18 10° N visible
22 Aug 6.0 20:20:47 10° SW 20:22:40 12° WSW 20:24:33 10° W visible
23 Aug 4.3 05:48:00 10° NE 05:52:51 45° ESE 05:57:43 10° S visible
23 Aug 4.0 18:03:13 10° SE 18:07:24 25° E 18:11:32 10° NNE visible
23 Aug 4.9 19:41:57 10° SSW 19:46:18 29° WSW 19:50:38 10° NW visible
24 Aug 5.7 05:12:50 10° ENE 05:16:22 19° ESE 05:19:55 10° SSE visible
24 Aug 3.2 19:04:38 10° S 19:09:45 70° WSW 19:14:48 10° NNW visible
25 Aug 3.2 18:28:03 10° SSE 18:33:01 47° E 18:37:53 10° N visible
25 Aug 5.7 20:08:34 10° SSW 20:11:33 16° WSW 20:14:31 10° WNW visible
26 Aug 4.8 05:37:04 10° NE 05:41:39 35° ESE 05:46:16 10° S visible
26 Aug 4.3 17:52:29 10° SE 17:56:05 19° E 17:59:40 10° NE visible
26 Aug 4.4 19:30:27 10° S 19:35:08 37° WSW 19:39:46 10° NW visible
27 Aug 5.9 05:02:27 10° E 05:05:15 15° ESE 05:08:02 10° SSE visible
27 Aug 2.9 18:53:21 10° SSE 18:58:32 90° NNE 19:03:36 10° NNW visible
28 Aug 3.5 18:17:01 10° SSE 18:21:44 36° E 18:26:22 10° NNE visible
28 Aug 5.4 19:56:45 10° SSW 20:00:26 20° WSW 20:04:05 10° WNW visible
29 Aug 5.3 05:26:15 10° NE 05:30:29 27° ESE 05:34:45 10° SSE visible
29 Aug 3.9 19:19:02 10° S 19:23:57 48° WSW 19:28:49 10° NNW visible
30 Aug 6.2 04:52:37 10° E 04:54:08 11° ESE 04:55:39 10° SE visible
30 Aug 2.9 18:42:09 10° SSE 18:47:17 69° ENE 18:52:20 10° N visible
30 Aug 6.1 20:24:29 10° SW 20:25:37 11° WSW 20:26:44 10° WSW visible
31 Aug 3.9 18:06:05 10° SE 18:10:26 28° E 18:14:44 10° NNE visible
31 Aug 5.1 19:45:05 10° SSW 19:49:17 26° WSW 19:53:26 10° NW visible
